This is the latest recevied weather packets stored in our database for station/object KH6DH-13. If no packets are shown the sender has not sent any weather packets the latest 10 day(s).
| Time | Temp. | Humidity | Pressure | Rain* | Wind** | Luminosity | Snow |
|---|---|---|---|---|---|---|---|
| 1788237427 | 27.78° C | - | - | 0 mm | 1.34 m/s, 141° | - | - |
| 1788236821 | 27.78° C | - | - | 0 mm | 1.79 m/s, 89° | - | - |
| 1788236220 | 28.33° C | - | - | 0 mm | 0.89 m/s, 20° | - | - |
| 1788235619 | 28.33° C | - | - | 0 mm | 3.13 m/s, 63° | - | - |
| 1788235017 | 28.89° C | - | - | 0 mm | 1.34 m/s, 32° | - | - |
| 1788234416 | 28.89° C | - | - | 0 mm | 1.34 m/s, 79° | - | - |
| 1788233815 | 28.89° C | - | - | 0 mm | 2.24 m/s, 352° | - | - |
| 1788233214 | 28.89° C | - | - | 0 mm | 2.24 m/s, 66° | - | - |
| 1788232613 | 30° C | - | - | 0 mm | 2.68 m/s, 66° | - | - |
| 1788232012 | 30.56° C | - | - | 0 mm | 2.68 m/s, 128° | - | - |
| 1788231411 | 30.56° C | - | - | 0 mm | 2.68 m/s, 91° | - | - |
| 1788230810 | 30.56° C | - | - | 0 mm | 3.13 m/s, 58° | - | - |
| 1788230209 | 30.56° C | - | - | 0 mm | 2.24 m/s, 359° | - | - |
| 1788229608 | 30.56° C | - | - | 0 mm | 1.79 m/s, 42° | - | - |
| 1788229007 | 30.56° C | - | - | 0 mm | 1.34 m/s, 51° | - | - |
| 1788228406 | 30° C | - | - | 0 mm | 2.68 m/s, 56° | - | - |
| 1788227805 | 30° C | - | - | 0 mm | 1.79 m/s, 73° | - | - |
| 1788227204 | 30° C | - | - | 0 mm | 1.79 m/s, 82° | - | - |
| 1788226603 | 30.56° C | - | - | 0 mm | 3.58 m/s, 359° | - | - |
| 1788226002 | 30.56° C | - | - | 0 mm | 1.79 m/s, 121° | - | - |
| 1788225401 | 30° C | - | - | 0 mm | 1.34 m/s, 160° | - | - |
| 1788224800 | 30.56° C | - | - | 0 mm | 1.79 m/s, 86° | - | - |
| 1788224199 | 30° C | - | - | 0 mm | 2.24 m/s, 39° | - | - |
| 1788223598 | 30.56° C | - | - | 0 mm | 3.13 m/s, 20° | - | - |
| 1788222997 | 30° C | - | - | 0 mm | 3.13 m/s, 100° | - | - |
* Rain latest hour (hover to see other rain measurements)
** Current wind speed in m/s (hover to see current wind gust speed)